カタログに戻る

COSMOS 2251 DEB

運用中LEO
NORAD 34045·DEBRIS·🇷🇺 Russia

打ち上げ Jun 16, 1993 から Plesetsk Cosmodrome

Loading…

次のパス (今後24時間)

TLE

最新Source: Space-Track

元期: Sep 14, 2026, 05:25 UTC

1 34045U 93036JG  26257.22599355  .00000121  00000-0  52441-4 0  9993
2 34045  74.0398 166.7114 0026683 187.8895 327.2088 14.34186892919821

AllMySatでCOSMOS 2251 DEBをリアルタイム追跡

Download on the App Store